Location: Edinburgh
(55.9500°N, 3.1600°W)
Time: 18:26:59
(UTC+01:00)

Envisat - Pass Details

Date: 11 October 2017
Orbit: 764 x 766 km, 98.2° (Epoch: 22 October)

Event Time Altitude Azimuth Distance (km) Brightness Sun altitude
Exits shadow 22:10:17 13° 230° (SW) 2,120 5.4 -31.1°
Maximum altitude 22:13:23 21° 272° (W) 1,687 5.2 -31.5°
Drops below altitude 10° 22:17:11 10° 320° (NW) 2,315 6.3 -31.9°
Sets 22:20:04 0° 337° (NNW) 3,247 7.1 -32.2°
